Location: Newark
(41.9000°N, 12.4833°E)
Time: 21:06:37
(UTC+00:00)

N. Korean satellite - Visible Passes

Search period start: 22 March 2019 00:00
Search period end: 01 April 2019 00:00
Orbit: 456 x 510 km, 97.2° (Epoch: 22 March)

Date Brightness Start Highest point End Pass type
(mag) Time Alt. Az. Time Alt. Az. Time Alt. Az.
22 Mar 9.4 04:41:39 10° NE 04:44:35 24° E 04:47:32 10° SSE visible
23 Mar 10.1 04:18:05 10° ENE 04:19:36 12° E 04:21:07 10° ESE visible
26 Mar 9.7 04:35:54 10° NE 04:38:41 21° E 04:41:29 10° SE visible
27 Mar 10.5 04:12:54 10° ENE 04:13:40 11° E 04:14:27 10° ESE visible
